Weather in Ilioupoli

Greece     37°56′00″N   23°45′20″E
temp.,
°C
wind,
m/s
gust,
m/s
humid.,
%
clouds,
%
prec.,
mm/h
press.,
hPa
HPBL,
m
18 april, sun
sun1800:00+14nne2282100 0.0 101163
03:00+13ene2283100 0.0 101130
06:00+13ne1185100 0.0 101117
09:00+15sw1174100 0.0 1012294
12:00+18sw3362100 0.0 1013537
15:00+19wsw2355100 0.0 1012522
18:00+17ssw3471100 0.0 1013443
21:00+16s1280100 0.1 101383
19 april, mon
mon1900:00+15wsw118021 0.0 101440
03:00+14s00870 0.0 101212
06:00+13wnw1187100 0.0 101116
09:00+15s1168100 0.0 1012269
12:00+18sw57462 0.0 10111251
15:00+19sw56444 0.0 10101366
18:00+18w811370 0.0 10091819
21:00+14w710460 0.0 1010531
20 april, tue
tue2000:00+12w58580 0.0 1011395
03:00+11w45650 0.0 1011232
06:00+10w34670 0.0 1012138
09:00+13w35590 0.0 1014704
12:00+17wsw55392 0.0 10151492
15:00+19wsw77293 0.0 10142050
18:00+17sw45460 0.0 1014683
21:00+14sw45575 0.0 1016173
21 april, wed
wed2100:00+12w235422 0.0 1017110
03:00+11w22584 0.0 101769
06:00+10nw12630 0.0 101738
09:00+14nw11485 0.0 1018274
12:00+18sw333715 0.0 10191387
15:00+19sw65277 0.0 10181685
18:00+17ssw54370 0.0 1018781
21:00+14ssw22580 0.0 1020125
22 april, thu
thu2200:00+13wsw12672 0.0 102064
03:00+12wnw11740 0.0 102018
06:00+11nw11680 0.0 102017
09:00+15w11425 0.0 1021242
12:00+19ssw332513 0.0 10211432
15:00+20sw43245 0.0 10211364
18:00+19s32305 0.0 1020968
21:00+15ssw115492 0.0 102183